This is the latest recevied weather packets stored in our database for station/object W3JBS-2. If no packets are shown the sender has not sent any weather packets the latest 10 day(s).
| Time | Temp. | Humidity | Pressure | Rain* | Wind** | Luminosity | Snow |
|---|---|---|---|---|---|---|---|
| 1787515582 | 27.22° C | 53% | 1001.9 hPa | 0 mm | - | 1644 W/m² | - |
| 1787514683 | 27.22° C | 59% | 1001.9 hPa | 0 mm | - | 1619 W/m² | - |
| 1787513783 | 27.22° C | 57% | 981.4 hPa | 0 mm | - | 1464 W/m² | - |
| 1787512882 | 27.22° C | 58% | 981.4 hPa | 0 mm | - | 1387 W/m² | - |
| 1787511983 | 26.67° C | 57% | 981.4 hPa | 0 mm | - | 1399 W/m² | - |
| 1787511083 | 26.67° C | 63% | 981.4 hPa | 0 mm | - | 1404 W/m² | - |
| 1787510182 | 25.56° C | 62% | 983.4 hPa | 0 mm | - | 1422 W/m² | - |
| 1787509283 | 26.11° C | 60% | 983.4 hPa | 0 mm | - | 1422 W/m² | - |
| 1787507483 | 26.11° C | 62% | 986.2 hPa | 0 mm | - | 1441 W/m² | - |
| 1787506583 | 25.56° C | 67% | 986.2 hPa | 0 mm | - | 1452 W/m² | - |
| 1787505682 | 25° C | 64% | 980.3 hPa | 0 mm | - | 1454 W/m² | - |
| 1787504783 | 25° C | 66% | 973.3 hPa | 0 mm | - | 1454 W/m² | - |
| 1787503883 | 25.56° C | 68% | 986.2 hPa | 0 mm | - | 1447 W/m² | - |
| 1787502982 | 25° C | 71% | 1015.7 hPa | 0 mm | - | 1478 W/m² | - |
| 1787502083 | 23.89° C | 71% | 1015.7 hPa | 0 mm | - | 1480 W/m² | - |
| 1787501183 | 23.89° C | 72% | 1015.7 hPa | 0 mm | - | 1475 W/m² | - |
| 1787500282 | 23.33° C | 74% | 1025.6 hPa | 0 mm | - | 1489 W/m² | - |
| 1787499383 | 23.33° C | 76% | 1017.6 hPa | 0 mm | - | 1506 W/m² | - |
| 1787498482 | 23.33° C | 77% | 1028.5 hPa | 0 mm | - | 1505 W/m² | - |
| 1787497583 | 22.78° C | 81% | 1006 hPa | 0 mm | - | 1512 W/m² | - |
| 1787496683 | 22.78° C | 82% | 1012.8 hPa | 0 mm | - | 1517 W/m² | - |
| 1787495782 | 22.78° C | 80% | 1029.8 hPa | 0.25 mm | - | 1510 W/m² | - |
| 1787494883 | 22.78° C | 83% | 1030.4 hPa | 0.25 mm | - | 1519 W/m² | - |
| 1787493983 | 21.67° C | 85% | 1007.9 hPa | 0.25 mm | - | 1528 W/m² | - |
| 1787493082 | 22.22° C | 85% | 1007.9 hPa | 0.25 mm | - | 1524 W/m² | - |
* Rain latest hour (hover to see other rain measurements)
** Current wind speed in m/s (hover to see current wind gust speed)